Time,TemperatureF,DewpointF,PressureIn,WindDirection,WindDirectionDegrees,WindSpeedMPH,WindSpeedGustMPH,Humidity,HourlyPrecipIn,Conditions,Clouds,dailyrainin,SoftwareType,DateUTC
2013-01-28 05:32:00,28.0,27.0,29.71,North,0,0.0,0.0,96,0.00,,,0.01,,2013-01-28 11:32:00,
2013-01-28 05:52:00,28.0,27.0,29.71,North,0,0.0,0.0,96,0.00,,,0.01,,2013-01-28 11:52:00,
2013-01-28 06:03:00,28.0,27.0,29.71,North,0,0.0,0.0,96,0.00,,,0.01,,2013-01-28 12:03:00,
2013-01-28 06:12:00,28.0,27.0,29.71,North,0,0.0,0.0,96,0.00,,,0.01,,2013-01-28 12:12:00,
2013-01-28 06:23:00,28.0,27.0,29.71,North,0,0.0,0.0,96,0.00,,,0.01,,2013-01-28 12:23:00,
2013-01-28 08:03:00,29.0,28.0,29.75,North,0,0.0,0.0,96,0.00,,,0.01,,2013-01-28 14:03:00,
2013-01-28 08:12:00,29.0,28.0,29.75,North,0,0.0,0.0,96,0.00,,,0.01,,2013-01-28 14:12:00,
2013-01-28 08:22:00,29.0,28.0,29.75,North,0,0.0,0.0,96,0.00,,,0.01,,2013-01-28 14:22:00,
2013-01-28 08:33:00,29.0,28.0,29.75,North,0,0.0,0.0,96,0.00,,,0.01,,2013-01-28 14:33:00,
2013-01-28 08:43:00,29.0,28.0,29.75,North,0,0.0,0.0,96,0.00,,,0.01,,2013-01-28 14:43:00,
2013-01-28 08:52:00,29.0,28.0,29.75,North,0,0.0,0.0,96,0.00,,,0.01,,2013-01-28 14:52:00,
2013-01-28 09:03:00,29.0,28.0,29.76,North,0,0.0,2.0,96,0.00,,,0.01,,2013-01-28 15:03:00,
2013-01-28 09:12:00,29.0,28.0,29.76,North,0,0.0,2.0,96,0.00,,,0.01,,2013-01-28 15:12:00,
2013-01-28 09:23:00,29.0,28.0,29.75,North,0,0.0,2.0,96,0.00,,,0.01,,2013-01-28 15:23:00,
2013-01-28 09:33:00,30.0,29.0,29.75,WSW,257,0.0,3.0,96,0.00,,,0.01,,2013-01-28 15:33:00,
2013-01-28 09:43:00,30.0,29.0,29.75,WSW,257,0.0,3.0,96,0.00,,,0.01,,2013-01-28 15:43:00,
2013-01-28 09:53:00,30.0,29.0,29.75,SW,219,0.0,3.0,96,0.00,,,0.01,,2013-01-28 15:53:00,
2013-01-28 10:04:00,31.0,30.0,29.75,North,0,0.0,1.0,96,0.00,,,0.01,,2013-01-28 16:04:00,
2013-01-28 10:12:00,31.0,30.0,29.75,North,0,0.0,1.0,96,0.00,,,0.01,,2013-01-28 16:12:00,
2013-01-28 10:22:00,31.0,30.0,29.75,North,0,0.0,2.0,96,0.00,,,0.01,,2013-01-28 16:22:00,
2013-01-28 10:32:00,31.0,30.0,29.75,North,0,0.0,2.0,95,0.00,,,0.01,,2013-01-28 16:32:00,
2013-01-28 10:43:00,31.0,30.0,29.75,North,0,0.0,2.0,95,0.00,,,0.01,,2013-01-28 16:43:00,
2013-01-28 10:53:00,31.0,30.0,29.75,North,0,0.0,3.0,95,0.00,,,0.01,,2013-01-28 16:53:00,
2013-01-28 11:02:00,31.0,30.0,29.75,North,0,0.0,3.0,95,0.00,,,0.01,,2013-01-28 17:02:00,
2013-01-28 11:12:00,31.0,30.0,29.75,North,0,0.0,3.0,95,0.00,,,0.01,,2013-01-28 17:12:00,
2013-01-28 11:23:00,32.0,31.0,29.76,NE,39,0.0,3.0,95,0.00,,,0.01,,2013-01-28 17:23:00,
2013-01-28 11:32:00,32.0,31.0,29.75,North,0,1.0,3.0,95,0.00,,,0.01,,2013-01-28 17:32:00,
2013-01-28 11:42:00,32.0,31.0,29.75,North,0,1.0,3.0,95,0.00,,,0.01,,2013-01-28 17:42:00,
2013-01-28 11:52:00,33.0,31.0,29.75,NE,44,0.0,4.0,94,0.00,,,0.01,,2013-01-28 17:52:00,
2013-01-28 12:03:00,34.0,32.0,29.74,NW,323,0.0,5.0,94,0.00,,,0.01,,2013-01-28 18:03:00,
2013-01-28 12:12:00,34.0,32.0,29.74,NW,323,0.0,5.0,94,0.00,,,0.01,,2013-01-28 18:12:00,
2013-01-28 12:23:00,34.0,32.0,29.74,SE,143,1.0,5.0,94,0.00,,,0.01,,2013-01-28 18:23:00,
2013-01-28 12:33:00,34.0,32.0,29.73,South,184,0.0,3.0,94,0.00,,,0.01,,2013-01-28 18:33:00,
2013-01-28 12:42:00,34.0,32.0,29.73,South,184,0.0,3.0,94,0.00,,,0.01,,2013-01-28 18:42:00,
2013-01-28 12:52:00,34.0,32.0,29.73,North,0,0.0,3.0,94,0.00,,,0.01,,2013-01-28 18:52:00,
2013-01-28 13:02:00,34.0,32.0,29.73,North,0,0.0,0.0,94,0.00,,,0.01,,2013-01-28 19:02:00,
2013-01-28 13:12:00,34.0,32.0,29.73,North,0,0.0,0.0,94,0.00,,,0.01,,2013-01-28 19:12:00,
2013-01-28 13:22:00,34.0,32.0,29.73,North,0,0.0,0.0,94,0.00,,,0.01,,2013-01-28 19:22:00,
2013-01-28 13:32:00,34.0,32.0,29.73,North,0,0.0,0.0,94,0.00,,,0.01,,2013-01-28 19:32:00,
2013-01-28 13:42:00,34.0,32.0,29.73,North,0,0.0,0.0,94,0.00,,,0.01,,2013-01-28 19:42:00,
2013-01-28 16:02:00,34.0,32.0,29.69,North,0,0.0,3.0,94,0.00,,,0.00,,2013-01-28 22:02:00,
2013-01-28 16:12:00,34.0,32.0,29.69,North,0,0.0,3.0,94,0.00,,,0.00,,2013-01-28 22:12:00,
2013-01-28 16:23:00,34.0,32.0,29.69,North,0,0.0,3.0,94,0.00,,,0.00,,2013-01-28 22:23:00,
2013-01-28 16:32:00,34.0,32.0,29.69,North,0,0.0,3.0,94,0.00,,,0.00,,2013-01-28 22:32:00,